THOR ABLESTAR DEB, 3740

Orbit data source: Space-Track

THOR ABLESTAR DEB, 3740 is space debris in LEO originally from a launch on Thu, 29 Jun 1961 UTC launched from the Air Force Eastern Test Range (AFETR). Debris objects in space refer to the collection of defunct objects orbiting the Earth. Examples of debris include non-operational satellites, rocket bodies, and fragments generated from explosions, collisions, or faulty payload assembly.

Loading next visibility...
Identifier
3740, 1961-015JB
Orbit
LEO
Country
Flag of USUS
Related business
Manufacturer
Unknown
Mission
Spacecraft
Bus & Motor
Unknown
Mass
Unknown
Launch date (UTC)
1961-06-29 (64 years ago)
Launch vehicle
Unknown
Launch site
Air Force Eastern Test Range (AFETR)
Object type
Payload
Rocket body
Debris
Shape & HBR
Unknown shape, 0.1 m
Radar Cross Section
Small (<0.1 m²)

Expand to show TLE details & history
Last TLE update: 9 hours ago

TLE from 9 hours ago
0 THOR ABLESTAR DEB
1  3740U 61015JB  25299.36146984  .00000750  00000-0  43862-3 0  9993
2  3740  66.3324 291.5987 0085651 178.4813 181.6550 14.12134558289018
Epoch: 2025-10-26T08:40Z
TLE epoch observation values (Epoch: 2025-10-26T08:40:30.994Z)
Latitude
-0.00001°
Longitude
126.49079°
Altitude
916.046 km
Speed
7.363 km/s
True Right ascension
19h 26m 23s
True Declination
0° 00' 00"
Sunlit
Object was in daylight at epoch
Visualization orbit readout
Latitude
Unknown
Longitude
Unknown
Altitude
Unknown
Speed
Unknown
Apparent Right ascension
Unknown
Apparent Declination
Unknown
Sunlit
N/A
Visualization observer readout
Local Sidereal Time
12:56:33
Azimuth
Unknown
Elevation
Unknown
Doppler factor
Unknown
Orbital elements
Apogee altitude
912.422 km
Perigee altitude
788.594 km
Semi-major axis
7,228.645 km
Eccentricity
0.00857
Inclination
66.3324°
RAAN
291.5987°
Arg. of periapsis
178.4813°
True anomaly
181.62695°
Mean anomaly
181.655°
Eccentric anomaly
181.64095°
Mean motion
3.53149 °/min
Orbital period
101.94 mins
BSTAR
0.00043862
Loading maneuver chart data...
Computing Atmospheric mass density...

Documentation

Showing up to 5 results
|